Weather History for Sacramento / Mc Clellan, CA

Change the Weather History Date:

Monday, December 31, 2012

  Actual Average (KMHR) Record (KMHR)
Temperature  
Mean Temperature 40 °F -  
Max Temperature 50 °F 50 °F 66 °F (1996)
Min Temperature 30 °F 37 °F 24 °F (2010)
Degree Days  
Heating Degree Days 25    
Moisture  
Dew Point 32 °F    
Average Humidity 73    
Maximum Humidity 93    
Minimum Humidity 46    
Precipitation  
Precipitation 0.00 in - - ()
Sea Level Pressure  
Sea Level Pressure 30.26 in    
Wind  
Wind Speed 6 mph (NNW)    
Max Wind Speed 14 mph    
Max Gust Speed -    
Visibility 9 miles    
Events Rain    
Averages and records for this station are not official NWS values.
T = Trace of Precipitation, MM = Missing Value Source: NWS Daily Summary

Daily Weather History Graph

Daily Weather History Graph

Search for Another Location

Airport:

Trip Planner

Search our weather history database for the weather conditions in past years. The results will help you decide how hot, cold, wet, or windy it might be!

Date:

Astronomy

Dec. 31, 2012 Rise Set
Actual Time 7:23 AM PST 4:54 PM PST
Civil Twilight 6:53 AM PST 5:24 PM PST
Nautical Twilight 6:20 AM PST 5:57 PM PST
Astronomical Twilight 5:48 AM PST 6:29 PM PST
Moon 8:27 PM PST (12/31) 9:10 AM PST (12/31)
Length of Visible Light 10h 30m
Length of Day
9h 31m
Waning Gibbous, 89% of the Moon is Illuminated
Dec 31
Waning Gibbous
Jan 4
Last Quarter
Jan 11
New
Jan 18
First Quarter
Jan 26
Full

Hourly Weather History & Observations

Time (PST) Temp. Windchill Dew Point Humidity Pressure Visibility Wind Dir Wind Speed Gust Speed Precip Events Conditions
12:10 AM 39.2 °F 31.2 °F 26.6 °F 61% 30.17 in 10.0 mi NNW 13.8 mph - N/A Rain Light Rain
12:30 AM 41.0 °F 33.9 °F 26.6 °F 57% 30.17 in 10.0 mi NNW 12.7 mph - N/A Rain Light Rain
12:50 AM 39.2 °F 32.5 °F 28.4 °F 65% 30.18 in 10.0 mi NW 10.4 mph - N/A Rain Light Rain
1:10 AM 39.2 °F 31.2 °F 28.4 °F 65% 30.19 in 10.0 mi NW 13.8 mph - N/A Rain Light Rain
1:30 AM 37.4 °F 29.3 °F 28.4 °F 70% 30.20 in 10.0 mi NNW 12.7 mph - N/A   Clear
1:50 AM 37.4 °F 30.3 °F 28.4 °F 70% 30.21 in 10.0 mi NW 10.4 mph - N/A Rain Light Rain
2:10 AM 37.4 °F 31.4 °F 28.4 °F 70% 30.23 in 10.0 mi NW 8.1 mph - N/A   Clear
2:30 AM 35.6 °F 30.7 °F 30.2 °F 81% 30.24 in 10.0 mi NNW 5.8 mph - N/A Rain Light Rain
2:50 AM 37.4 °F 30.3 °F 30.2 °F 75% 30.23 in 10.0 mi North 10.4 mph - N/A Rain Light Rain
3:10 AM 35.6 °F 28.0 °F 28.4 °F 75% 30.23 in 10.0 mi North 10.4 mph - N/A Rain Light Rain
3:30 AM 35.6 °F 28.6 °F 28.4 °F 75% 30.24 in 10.0 mi North 9.2 mph - N/A   Clear
3:50 AM 35.6 °F 32.8 °F 28.4 °F 75% 30.25 in 10.0 mi NNW 3.5 mph - N/A   Clear
4:10 AM 35.6 °F 32.8 °F 28.4 °F 75% 30.25 in 10.0 mi NNW 3.5 mph - N/A Rain Light Rain
4:30 AM 35.6 °F 32.8 °F 28.4 °F 75% 30.24 in 10.0 mi North 3.5 mph - N/A   Clear
4:50 AM 32.0 °F - 28.4 °F 87% 30.24 in 10.0 mi Calm Calm - N/A   Clear
5:10 AM 32.0 °F - 28.4 °F 87% 30.24 in 10.0 mi Calm Calm - N/A Rain Light Rain
5:30 AM 32.0 °F - 28.4 °F 87% 30.23 in 10.0 mi Calm Calm - N/A   Clear
5:50 AM 32.0 °F - 26.6 °F 80% 30.24 in 10.0 mi Calm Calm - N/A   Clear
6:10 AM 32.0 °F - 26.6 °F 80% 30.25 in 10.0 mi Calm Calm - N/A Rain Light Rain
6:30 AM 32.0 °F 28.7 °F 28.4 °F 87% 30.26 in 10.0 mi WSW 3.5 mph - N/A Rain Light Rain
6:50 AM 32.0 °F 27.5 °F 28.4 °F 87% 30.27 in 10.0 mi West 4.6 mph - N/A Rain Light Rain
7:10 AM 32.0 °F - 28.4 °F 87% 30.27 in 10.0 mi Calm Calm - N/A Rain Light Rain
7:30 AM 32.0 °F - 26.6 °F 80% 30.27 in 10.0 mi Calm Calm - N/A Rain Light Rain
7:50 AM 30.2 °F 26.7 °F 26.6 °F 86% 30.28 in 10.0 mi NNE 3.5 mph - N/A   Clear
8:10 AM 32.0 °F 28.7 °F 28.4 °F 87% 30.30 in 10.0 mi NNW 3.5 mph - N/A   Clear
8:30 AM 32.0 °F 28.7 °F 28.4 °F 87% 30.31 in 10.0 mi North 3.5 mph - N/A   Clear
8:50 AM 33.8 °F 28.6 °F 30.2 °F 87% 30.32 in 10.0 mi North 5.8 mph - N/A Rain Light Rain
9:10 AM 35.6 °F 28.6 °F 28.4 °F 75% 30.32 in 10.0 mi NE 9.2 mph - N/A Rain Light Rain
9:30 AM 39.2 °F 33.6 °F 28.4 °F 65% 30.32 in 10.0 mi NE 8.1 mph - N/A   Clear
9:50 AM 41.0 °F 38.0 °F 28.4 °F 61% 30.32 in 10.0 mi ENE 4.6 mph - N/A   Clear
10:10 AM 42.8 °F 38.6 °F 28.4 °F 57% 30.31 in 10.0 mi ENE 6.9 mph - N/A Rain Light Rain
10:30 AM 44.6 °F - 28.4 °F 53% 30.32 in 10.0 mi Calm Calm - N/A   Clear
10:50 AM 46.4 °F - 26.6 °F 46% 30.32 in 10.0 mi Calm Calm - N/A   Clear
11:10 AM 46.4 °F - 28.4 °F 50% 30.32 in 10.0 mi Calm Calm - N/A Rain Light Rain
11:30 AM 46.4 °F - 28.4 °F 50% 30.31 in 10.0 mi Calm Calm - N/A   Clear
11:50 AM - - - N/A% - 10.0 mi North - - N/A   Unknown
12:10 PM 48.2 °F - 32.0 °F 54% 30.29 in 9.0 mi South 4.6 mph - N/A   Clear
12:30 PM 48.2 °F - 32.0 °F 54% 30.28 in 10.0 mi South 3.5 mph - N/A Rain Light Rain
12:50 PM 48.2 °F - 32.0 °F 54% 30.27 in 9.0 mi SSE 3.5 mph - N/A   Clear
1:10 PM 48.2 °F - 33.8 °F 58% 30.26 in 10.0 mi SSE 4.6 mph - N/A Rain Light Rain
1:30 PM 50.0 °F - 35.6 °F 58% 30.25 in 9.0 mi SW 4.6 mph - N/A Rain Light Rain
1:50 PM 50.0 °F - 35.6 °F 58% 30.26 in 9.0 mi SW 5.8 mph - N/A   Clear
2:10 PM 50.0 °F - 35.6 °F 58% 30.25 in 10.0 mi SW 4.6 mph - N/A   Clear
2:30 PM 50.0 °F - 35.6 °F 58% 30.25 in 9.0 mi SSE 3.5 mph - N/A   Clear
2:50 PM 50.0 °F - 35.6 °F 58% 30.26 in 10.0 mi South 3.5 mph - N/A Rain Light Rain
3:10 PM 50.0 °F - 35.6 °F 58% 30.26 in 10.0 mi WSW 6.9 mph - N/A Rain Light Rain
3:30 PM 48.2 °F - 35.6 °F 62% 30.26 in 10.0 mi West 5.8 mph - N/A Rain Light Rain
3:50 PM 48.2 °F - 35.6 °F 62% 30.25 in 10.0 mi West 3.5 mph - N/A Rain Light Rain
4:10 PM 48.2 °F - 35.6 °F 62% 30.25 in 10.0 mi Calm Calm - N/A Rain Light Rain
4:30 PM 46.4 °F - 35.6 °F 66% 30.25 in 10.0 mi Calm Calm - N/A Rain Light Rain
4:50 PM 46.4 °F 45.2 °F 35.6 °F 66% 30.26 in 10.0 mi WNW 3.5 mph - N/A   Clear
5:10 PM 46.4 °F 45.2 °F 35.6 °F 66% 30.27 in 10.0 mi NW 3.5 mph - N/A   Unknown
5:30 PM 44.6 °F 42.2 °F 37.4 °F 76% 30.28 in 10.0 mi North 4.6 mph - N/A Rain Light Rain
5:50 PM 44.6 °F 43.1 °F 35.6 °F 71% 30.27 in 10.0 mi East 3.5 mph - N/A Rain Light Rain
6:10 PM 44.6 °F - 35.6 °F 71% 30.27 in 10.0 mi Calm Calm - N/A Rain Light Rain
6:30 PM 41.0 °F - 35.6 °F 81% 30.27 in 10.0 mi Calm Calm - N/A Rain Light Rain
6:50 PM 41.0 °F - 35.6 °F 81% 30.28 in 10.0 mi Calm Calm - N/A Rain Light Rain
7:10 PM 41.0 °F - 35.6 °F 81% 30.28 in 10.0 mi Calm Calm - N/A   Clear
7:30 PM 39.2 °F - 35.6 °F 87% 30.28 in 10.0 mi Calm Calm - N/A Rain Light Rain
7:50 PM 39.2 °F - 33.8 °F 81% 30.28 in 10.0 mi Calm Calm - N/A Rain Light Rain
8:10 PM 39.2 °F 37.0 °F 33.8 °F 81% 30.28 in 10.0 mi ESE 3.5 mph - N/A Rain Light Rain
8:30 PM 39.2 °F 37.0 °F 35.6 °F 87% 30.29 in 8.0 mi East 3.5 mph - N/A Rain Light Rain
8:50 PM 41.0 °F 37.1 °F 35.6 °F 81% 30.28 in 7.0 mi ESE 5.8 mph - N/A Rain Light Rain
9:10 PM 39.2 °F 35.9 °F 35.6 °F 87% 30.29 in 7.0 mi East 4.6 mph - N/A Rain Light Rain
9:30 PM 39.2 °F 35.0 °F 35.6 °F 87% 30.28 in 7.0 mi East 5.8 mph - N/A Rain Light Rain
9:50 PM 39.2 °F 35.9 °F 35.6 °F 87% 30.29 in 7.0 mi East 4.6 mph - N/A Rain Light Rain
10:10 PM 37.4 °F 32.8 °F 35.6 °F 93% 30.28 in 7.0 mi ESE 5.8 mph - N/A   Clear
10:30 PM 37.4 °F - 35.6 °F 93% 30.29 in 6.0 mi Calm Calm - N/A   Clear
10:50 PM 37.4 °F 34.9 °F 35.6 °F 93% 30.29 in 6.0 mi SW 3.5 mph - N/A   Clear
11:10 PM 37.4 °F 32.1 °F 35.6 °F 93% 30.26 in 7.0 mi South 6.9 mph - N/A   Clear
11:30 PM 35.6 °F - 33.8 °F 93% 30.27 in 5.0 mi Calm Calm - N/A   Clear
11:50 PM 33.8 °F - 32.0 °F 93% 30.28 in 5.0 mi Calm Calm - N/A   Clear